Home > Weather > Krems > Past weeks

Flag for Austria Weather for the Past 2 Weeks in Krems, Lower Austria, Austria

Now
41 °F

Scattered clouds.


Feels Like: 30 °F
Forecast: 26 / 45 °F
Wind: 26 mph from West

Location: Tulln Airport

Current Time: Feb 11, 2016 at 10:16:38 AM

Latest Report: Feb 11, 2016 at 9:50 AM


Visibility: 31 mi

Pressure: 29.71 "Hg

Humidity: 70%

Dew point: 32 °F

Location of KremsLocation

Historic Weather in Krems — Graph

°F

Krems Temperature Yesterday

Maximum temperature yesterday: 41 °F (at 4:50 AM)
Minimum temperature yesterday: 37 °F (at 8:50 PM)
Average temperature yesterday: 40 °F

High & Low Weather Summary for the Past Weeks

 TemperatureHumidityPressure
High59 °F (Jan 28, 11:50 AM)100% (Jan 27, 8:50 AM)30.42 "Hg (Jan 27, 8:50 AM)
Low32 °F (Jan 27, 8:20 AM)48% (Jan 28, 1:50 PM)29.30 "Hg (Feb 9, 8:50 PM)
Average45 °F76%30.01 "Hg
* Reported Jan 27 8:20 AM — Feb 11 8:50 AM, Krems, Weather by CustomWeather, © 2016

Note: Actual official high and low records may vary slightly from our data, if they occured in-between our weather recording intervals... More about our weather records

Advertising

Krems Weather History for the Previous 24 Hours

 ConditionsComfort  
Time TempWeatherWind HumidityBarometerVisibility
8:50 AM
Thu, Feb 11
41 °FBroken clouds.26 mph70%29.68 "Hg31 mi
7:50 AM39 °FScattered clouds.25 mph70%29.65 "Hg25 mi
6:50 AM37 °FPassing clouds.24 mph81%29.65 "Hg19 mi
5:50 AM37 °FPassing clouds.24 mph81%29.65 "Hg19 mi
4:50 AM39 °FPartly cloudy.21 mph70%29.62 "Hg19 mi
9:50 PM
Wed, Feb 10
39 °FPartly cloudy.21 mph81%29.50 "Hg16 mi
8:50 PM37 °FPartly cloudy.18 mph87%29.47 "Hg16 mi
7:50 PM39 °FPassing clouds.18 mph75%29.47 "Hg16 mi
6:50 PM39 °FPartly cloudy.13 mph70%29.45 "Hg16 mi
5:50 PM39 °FPassing clouds.15 mph75%29.45 "Hg16 mi
4:50 PM41 °FBroken clouds.17 mph76%29.42 "Hg22 mi
3:50 PM41 °FBroken clouds.21 mph76%29.42 "Hg22 mi
2:50 PM41 °FBroken clouds.17 mph81%29.39 "Hg12 mi
1:50 PM41 °FPartly sunny.17 mph70%29.39 "Hg11 mi
1:20 PM41 °FPartly sunny.16 mph70%29.39 "Hg11 mi
12:50 PM41 °FPartly sunny.15 mph76%29.36 "Hg11 mi
11:50 AM41 °FPartly sunny.15 mph81%29.36 "Hg9 mi
11:20 AM39 °FPartly sunny.16 mph87%29.36 "Hg9 mi
10:50 AM39 °FLight rain. Broken clouds.22 mph87%29.36 "Hg7 mi
Weather by CustomWeather, © 2016

See weather overviewHow to use our weather pages